SCP
0 0 0 0 0 0 0 0 0 0 0 0 0 0 0 0 0 0 0 0 0 0 0 0 0 0 0 0 0 0 0 0 0 0 0 0 0 0 0 0 0 0 0 0
0 0 0 0 0 0 0 0 0 0 0 0 0 0 0 0 0 0 0 0 0 0 0 0 0 0 0 0 0 0 0 0 0 0 0 0 0 0 0 0 0 0 0 0
0 0 0 0 0 0 0 0 0 0 0 0 0 0 0 0 0 0 0 0 0 0 0 0 0 0 0 0 0 0 0 0 0 0 0 0 0 0 0 0 0 0 0 0
0 0 0 0 0 0 0 0 0 0 0 0 0 0 0 0 0 0 0 0 0 0 0 0 0 0 0 0 0 0 0 0 0 0 0 0 0 0 0 0 0 0 0 0
0 0 0 0 0 0 0 0 0 0 0 0 0 0 0 0 0 0 0 0 0 0 0 0 0 0 0 0 0 0 0 0 0 0 0 0 0 0 0 0 0 0 0 0
0 0 0 0 0 0 0 0 0 0 0 0 0 0 0 0 0 0 0 0 0 0 0 0 0 0 0 0 0 0 0 0 0 0 0 0 0 0 0 0 0 0 0 0
0 0 0 0 0 0 0 0 0 0 0 0 0 0 0 0 0 0 0 0 0 0 0 0 0 0 0 0 0 0 0 0 0 0 0 0 0 0 0 0 0 0 0 0
0 0 0 0 0 0 0 0 0 0 0 0 0 0 0 0 0 0 0 0 0 0 0 0 0 0 0 0 0 0 0 0 0 0 0 0 0 0 0 0 0 0 0 0
0 0 0 0 0 0 0 0 0 0 0 0 0 0 0 0 0 0 0 0 0 0 0 0 0 0 0 0 0 0 0 0 0 0 0 0 0 0 0 0 0 0 0 0
0 0 0 0 0 0 0 0 0 0 0 0 0 0 0 0 0 0 0 0 0 0 0 0 0 0 0 0 0 0 0 0 0 0 0 0 0 0 0 0 0 0 0 0
0 0 0 0 0 0 0 0 0 0 0 0 0 0 0 0 0 0 0 0 0 0 0 0 0 0 0 0 0 0 0 0 0 0 0 0 0 0 0 0 0 0 0 0
0 0 0 0 0 0 0 0 0 0 0 0 0 0 0 0 0 0 0 0 0 0 0 0 0 0 0 0 0 0 0 0 0 0 0 0 0 0 0 0 0 0 0 0
0 0 0 0 0 0 0 0 0 0 0 0 0 0 0 0 0 0 0 0 0 0 0 0 0 0 0 0 0 0 0 0 0 0 0 0 0 0 0 0 0 0 0 0
0 0 0 0 0 0 0 0 0 0 0 0 0 0 0 0 0 0 0 0 0 0 0 0 0 0 0 0 0 0 0 0 0 0 0 0 0 0 0 0 0 0 0 0
0 0 0 0 0 0 0 0 0 0 0 0 0 0 0 0 0 0 0 0 0 0 0 0 0 0 0 0 0 0 0 0 0 0 0 0 0 0 0 0 0 0 0 0
0 0 0 0 0 0 0 0 0 0 0 0 0 0 0 0 0 0 0 0 0 0 0 0 0 0 0 0 0 0 0 0 0 0 0 0 0 0 0 0 0 0 0 0
0 0 0 0 0 0 0 0 0 0 0 0 0 0 0 0 0 0 0 0 0 0 0 0 0 0 0 0 0 0 0 0 0 0 0 0 0 0 0 0 0 0 0 0
0 0 0 0 0 0 0 0 0 0 0 0 0 0 0 0 0 0 0 0 0 0 0 0 0 0 0 0 0 0 0 0 0 0 0 0 0 0 0 0 0 0 0 0
0 0 0 0 0 0 0 0 0 0 0 0 0 0 0 0 0 0 0 0 0 0 0 0 0 0 0 0 0 0 0 0 0 0 0 0 0 0 0 0 0 -0 0 0
0 0 0 0 0 0 0 0 0 0 0 0 0 0 0 0 0 0 0 0 0 0 0 0 0 0 0 0 0 0 0 0 0 0 0 0 0 0 0 0 -0 -0 -0 0
0 0 0 0 0 0 0 0 0 0 0 0 0 0 0 0 0 0 0 0 0 0 0 0 0 0 0 0 0 0 0 0 0 0 0 0 0 0 0 0 -0 -0 -0 0
0 0 0 0 0 0 0 0 0 0 0 0 0 0 0 0 0 0 0 0 0 0 0 0 0 0 0 0 0 0 0 0 0 0 0 0 0 0 0 0 0 -0 0 0
0 0 0 0 0 0 0 0 0 0 0 0 0 0 0 0 0 0 0 0 0 0 0 0 0 0 0 0 0 0 0 -0 -0 0 0 0 0 0 0 0 0 0 0 0
0 0 0 0 0 0 0 0 0 0 0 0 0 0 0 0 0 0 0 0 0 0 0 0 0 0 0 0 0 0 0 -0 -0 0 0 0 0 0 0 0 0 0 0 0
0 0 0 0 0 0 0 0 0 0 0 0 0 0 0 0 0 0 0 0 0 0 0 0 0 0 0 0 0 0 0 -0 -0 -0 -0 -0 0 0 0 0 0 0 0 0
0 0 0 0 0 0 0 0 0 0 0 0 0 0 0 0 0 0 0 0 0 0 0 0 0 0 0 0 0 0 0 0 -0 -0 -0 -0 0 -0 0 0 0 0 0 0
Wind_Speed
2 4 1 3 4 4 2 3 3 3 4 5 5 5 4 3 4 5 3 3 2 1 2 3 4 4 4 5 5 5 5 6 5 4 4 4 5 5 5 4 5 5 4 4
5 0 4 3 1 4 4 5 3 0 2 4 5 2 2 2 3 4 4 3 2 2 3 3 4 4 4 4 5 5 5 6 5 4 3 3 4 4 4 5 5 5 5 4
5 5 2 3 4 5 4 4 4 3 1 4 5 2 1 1 1 3 3 2 1 1 1 2 3 4 4 5 5 5 5 6 6 6 4 4 4 4 4 5 4 5 5 5
2 1 2 4 3 4 1 1 3 4 3 2 4 2 3 2 0 1 1 1 0 0 0 2 3 4 5 5 5 5 5 6 6 6 5 5 4 4 5 5 5 6 5 5
1 1 3 3 1 2 3 1 1 1 2 1 1 3 4 1 2 2 2 2 1 1 1 2 3 4 4 5 5 5 6 6 6 6 6 5 5 5 5 5 6 5 5 4
2 1 3 2 0 0 2 5 7 6 5 2 3 5 4 4 5 3 3 3 2 1 2 3 4 4 5 5 5 5 6 6 7 7 7 6 7 7 7 7 6 5 4 4
3 3 2 2 3 5 6 6 5 5 4 4 1 3 5 5 5 5 5 3 2 2 2 3 4 4 5 6 6 6 6 7 8 8 7 6 7 7 6 6 5 5 4 3
4 2 2 1 2 1 1 7 6 3 3 4 2 1 4 3 3 4 4 3 1 2 2 3 3 3 5 6 6 6 6 6 7 7 7 6 6 5 4 5 4 4 4 4
6 3 2 0 1 2 1 2 6 6 1 1 2 1 3 1 1 2 3 2 1 2 2 2 3 3 4 5 6 5 6 6 7 7 7 6 7 6 6 6 5 4 4 4
8 4 3 1 3 2 2 3 5 3 1 2 3 3 5 6 5 4 4 3 3 2 2 2 3 3 4 4 5 5 5 5 5 6 6 6 6 7 6 5 6 6 6 5
5 6 1 1 1 2 1 2 4 3 4 4 3 7 6 8 7 6 6 5 4 2 2 3 3 3 3 4 4 5 5 5 5 6 6 6 7 7 6 6 6 6 6 6
4 7 2 2 3 2 3 3 5 3 1 3 3 7 3 7 7 7 6 5 4 3 2 2 3 3 3 4 5 4 4 4 5 5 5 6 6 7 7 7 7 6 6 6
4 7 4 4 5 3 1 2 5 5 3 2 2 7 2 4 5 6 6 5 4 2 2 1 2 3 3 4 4 4 4 4 4 5 5 6 7 7 7 7 6 6 6 6
5 5 6 7 7 5 4 4 4 5 3 3 5 5 4 6 6 6 6 6 4 3 2 1 2 3 3 3 3 4 4 3 4 4 5 6 6 6 6 6 6 6 6 6
5 3 2 5 5 5 5 6 6 6 7 7 6 6 8 11 10 9 7 6 5 4 3 2 1 2 2 3 3 3 3 3 3 4 5 6 6 6 6 6 6 6 6 7
4 2 0 2 4 4 4 6 7 6 6 6 5 7 6 6 6 6 7 7 6 5 4 3 1 0 1 1 1 1 2 3 3 4 4 5 6 6 6 6 6 6 6 7
2 3 2 2 3 1 6 8 9 7 6 7 8 9 4 5 9 10 9 8 7 6 5 4 2 1 1 1 1 1 1 2 3 3 4 5 5 6 6 6 6 6 6 6
5 4 3 0 2 4 9 5 6 7 6 7 6 6 10 10 10 8 9 9 8 7 6 5 3 1 1 1 1 1 1 2 2 3 4 4 4 5 5 6 6 6 5 5
4 6 3 3 1 6 7 3 4 4 5 5 7 7 8 4 3 2 6 8 9 8 6 5 4 3 2 2 2 3 1 2 2 3 3 4 3 4 5 5 5 4 4 5
5 6 5 3 1 4 7 3 2 3 4 5 6 8 8 8 4 7 7 7 8 7 6 5 4 3 3 3 3 3 1 1 1 2 2 3 3 3 4 4 4 3 3 4
2 3 3 3 3 8 7 1 4 2 7 4 6 8 11 11 10 6 7 8 8 7 6 6 5 4 4 4 4 3 2 2 2 2 1 2 3 3 3 3 3 4 4 5
7 5 4 4 3 8 5 5 6 10 5 3 5 7 10 8 5 6 8 9 9 8 7 6 5 4 4 4 5 4 3 4 2 0 1 2 2 2 3 4 4 4 4 5
7 9 8 9 9 8 6 9 7 5 5 4 5 5 8 7 7 8 8 9 9 9 7 6 6 5 4 5 5 5 5 3 2 1 0 0 1 2 2 3 3 3 4 4
4 4 4 4 7 6 6 6 5 6 7 6 6 6 8 8 9 9 8 8 8 8 7 6 6 6 5 5 6 6 5 4 3 2 1 1 1 1 2 2 2 2 2 3
3 1 1 4 7 6 5 6 7 5 4 4 4 6 9 10 9 9 9 9 9 8 7 6 7 7 7 6 6 6 5 4 4 3 2 2 2 2 1 1 1 1 1 0
3 0 2 5 6 4 6 6 4 4 5 6 5 5 6 8 10 9 9 9 9 8 7 7 7 7 7 7 7 6 6 6 5 3 3 2 2 2 2 1 0 2 1 2
Wind_Direction
38 74 141 210 187 182 175 142 145 184 169 128 147 160 187 153 114 110 106 92 78 49 350 7 10 8 4 353 346 340 335 330 334 332 329 323 318 310 307 300 293 288 282 269
48 143 225 208 142 90 89 102 107 134 167 124 137 160 195 168 152 148 139 122 88 38 9 360 359 357 347 336 332 332 331 324 326 319 305 286 288 289 288 295 300 293 289 277
164 226 234 109 79 81 79 131 169 189 92 83 109 31 283 260 111 115 124 136 121 101 33 337 338 337 332 328 327 330 319 320 319 318 313 315 310 303 309 310 307 297 292 281
153 265 86 89 80 103 155 187 155 143 120 230 157 201 258 226 186 134 158 156 144 72 288 308 322 326 322 317 319 318 317 320 319 320 323 322 319 308 295 293 292 297 292 286
158 97 83 90 129 134 204 245 61 120 132 354 103 140 270 188 218 232 217 210 220 206 237 296 308 313 314 313 316 316 322 321 318 321 321 319 312 297 295 299 302 306 301 294
95 68 98 141 222 69 81 39 32 48 67 335 243 156 242 224 208 208 211 212 233 253 286 305 316 322 316 316 318 323 328 319 320 324 326 327 320 317 320 321 318 315 310 302
46 12 14 65 33 12 66 70 30 8 13 264 262 128 237 230 198 181 185 204 229 264 285 307 322 323 317 320 322 328 330 323 325 330 333 333 329 325 323 322 322 323 322 318
132 273 294 64 141 181 142 132 145 191 232 281 356 202 251 223 180 163 169 188 218 268 284 301 308 308 310 317 324 326 328 327 330 335 334 333 333 329 325 325 326 326 320 309
150 217 290 31 81 133 93 128 166 140 171 319 294 290 304 231 184 177 178 181 223 267 283 292 305 312 315 320 319 320 324 331 333 335 335 337 340 339 336 336 338 336 329 329
133 153 253 289 22 355 145 141 82 96 121 308 292 239 230 214 214 200 193 204 231 266 283 292 301 309 311 313 320 331 333 332 332 339 342 352 344 342 340 343 348 348 345 347
111 125 161 38 217 228 40 67 96 113 151 158 268 268 223 191 191 190 199 206 216 230 245 264 283 300 311 319 330 337 337 343 345 345 344 352 350 350 352 355 352 349 349 352
108 111 115 283 298 210 158 152 135 139 237 170 192 266 255 179 185 183 192 204 211 219 230 248 279 311 321 323 329 334 339 347 342 346 353 355 351 355 359 356 352 355 356 356
101 104 89 347 333 335 225 178 145 133 121 156 194 266 266 190 192 193 187 198 212 218 221 263 299 311 311 315 325 335 344 347 345 355 1 0 356 357 355 353 354 360 2 1
103 108 154 188 212 198 204 211 168 127 150 226 228 236 215 214 207 208 200 198 201 207 207 230 288 301 306 315 327 342 350 349 358 4 6 2 352 349 350 352 355 359 2 5
98 115 198 220 215 184 197 202 191 181 189 198 230 219 224 210 203 201 197 193 191 195 201 203 237 289 310 330 344 357 356 355 2 11 6 353 345 350 358 360 359 1 7 9
97 126 82 276 242 213 231 222 205 211 208 213 225 248 234 198 179 187 191 187 190 197 195 188 184 254 321 321 347 7 355 346 1 11 358 349 354 359 1 0 2 7 7 8
113 125 101 290 300 33 270 235 205 212 209 189 212 229 186 170 188 194 194 190 190 194 188 180 181 202 226 241 169 133 309 350 19 9 357 355 358 0 357 4 11 8 4 12
130 116 120 114 43 242 251 253 191 202 229 209 208 197 183 192 199 197 187 183 189 187 182 180 183 190 205 189 135 126 65 38 27 10 357 354 2 1 360 8 11 4 4 11
131 129 109 107 237 283 290 263 171 179 265 222 200 198 193 168 126 239 208 183 183 183 181 182 184 174 165 163 146 119 77 33 25 3 347 347 356 4 7 9 4 2 9 14
74 91 106 111 195 255 259 267 139 94 283 260 189 184 172 137 161 240 209 181 176 174 172 173 168 153 155 170 147 126 127 44 345 318 324 341 359 13 12 6 5 5 14 17
77 68 121 162 235 267 258 214 88 129 247 243 186 179 171 181 201 205 172 174 173 172 174 167 161 166 180 174 149 144 179 236 260 284 338 1 6 20 24 19 15 18 25 29
169 161 183 156 202 263 231 150 185 219 233 215 191 185 186 203 198 170 168 173 172 173 174 168 168 185 193 176 159 169 212 237 246 290 7 8 12 25 44 44 29 24 31 38
192 187 181 183 212 238 210 204 218 193 202 213 196 196 180 178 179 177 177 176 179 180 180 176 176 189 203 194 178 186 220 222 194 147 36 9 52 45 47 56 44 31 31 40
267 175 155 231 262 257 242 246 247 211 213 214 198 182 169 176 181 181 181 183 185 187 185 182 178 190 210 211 203 203 207 195 167 168 203 187 146 95 48 50 51 51 37 39
270 152 163 275 287 307 290 254 244 236 222 206 193 182 181 177 182 184 187 191 191 191 191 184 187 197 210 209 209 211 200 177 171 184 194 180 175 168 138 77 42 39 323 278
337 298 209 247 258 233 261 274 238 216 221 208 192 191 189 184 188 189 194 196 193 193 190 192 197 202 208 203 208 211 198 178 171 182 195 195 192 190 180 168 350 347 329 343